METEOR 2-11 DEB, 60006

Orbit data source: Space-Track

METEOR 2-11 DEB, 60006 is space debris in LEO originally from a launch on Thu, 05 Jul 1984 UTC launched from the Plesetsk Missile And Space Complex (PKMTR). Debris objects in space refer to the collection of defunct objects orbiting the Earth. Examples of debris include non-operational satellites, rocket bodies, and fragments generated from explosions, collisions, or faulty payload assembly.

Loading next visibility...
Identifier
60006, 1984-072AB
Orbit
LEO
Last TLE update
5 days ago
Origin
Manufacturer
Unknown
Mission
Spacecraft
Bus & Motor
Unknown
Mass
Unknown
Launch date (UTC)
1984-07-05 (41 years ago)
Launch vehicle
Unknown
Launch site
Plesetsk Missile And Space Complex (PKMTR)
Object type
Payload
Rocket body
Debris
Shape & HBR
Unknown
Radar Cross Section
Small (<0.1 m²)

Expand to show TLE details & history

TLE from 5 days ago
0 METEOR 2-11 DEB
1 60006U 84072AB  25179.06304440  .00000440  00000-0  30293-3 0  9996
2 60006  82.5272 297.0378 0018767 183.6884 176.4148 13.97298548381215
Epoch: 2025-06-28T01:30Z
TLE epoch observation values (Epoch: 2025-06-28T01:30:47.036Z)
Latitude
-0.00004°
Longitude
-2.06513°
Altitude
919.726 km
Speed
7.385 km/s
True Right ascension
19h 48m 09s
True Declination
0° 00' 00"
Sunlit
Object was in full shadow at epoch
Visualization orbit readout
Latitude
-75.33561°
Longitude
-156.27677°
Altitude
929.998 km
Speed
7.386 km/s
Apparent Right ascension
04h 14m 50s
Apparent Declination
-66° 13' 39"
Sunlit
Object is in daylight
Visualization observer readout
Local Sidereal Time
14:47:30
Azimuth
197.985° SSW
Elevation
-60.953°
Doppler factor
1
Orbital elements
Apogee altitude
913.959 km
Perigee altitude
886.64 km
Semi-major axis
7,278.436 km
Eccentricity
0.00188
Inclination
82.5272°
RAAN
297.0378°
Arg. of periapsis
183.6884°
True anomaly
Unknown
Mean anomaly
176.4148°
Eccentric anomaly
Unknown
Mean motion
3.49531 °/min
Orbital period
103 mins
BSTAR
0.00030293
Loading maneuver chart data...
Loading SW <> Apogee altitude chart data...
Loading historical data...
Loading historical data...
Loading historical data...
Loading historical data...
Loading historical data...
Loading historical data...
Loading historical data...

METEOR 2-11 DEB Visibility forecast

Observer location: undefined°, undefined°

Span
Click to sort rows by Start time (UTC) header in descending order
Start Az.
Max El. time (UTC)
Max El. Az.
Max El.
End time (UTC)
End Az.
9 mins2025-07-03 07:05:23.643Z138.755° SSE2025-07-03 07:09:23.643Z90.726° ESE24.688°2025-07-03 07:14:23.643Z31.64° NE
9 mins2025-07-03 08:49:23.643Z223.965° SW2025-07-03 08:53:23.643Z287.029° WNW32.309°2025-07-03 08:58:23.643Z350.793° N
6 mins2025-07-03 17:53:23.643Z39.837° NE2025-07-03 17:55:23.643Z64.215° ENE18.014°2025-07-03 17:59:23.643Z110.64° ESE
9 mins2025-07-03 19:36:23.643Z337.494° NNW2025-07-03 19:40:23.643Z252.884° W39.614°2025-07-03 19:45:23.643Z191.036° SSW
|